Wind_Speed
20 20 20 21 21 23 23 21 20 20 21 21 21 21 20 20 20 20 20 20 19 19 19 19 19 19 19 19 18 18 18 18 18 18 18 18 17 17 17 17 17 16 16 16 16 15 15 15 15
19 20 20 20 21 21 22 22 21 21 21 21 21 21 21 21 21 21 20 20 20 20 20 20 20 20 20 20 20 20 20 20 20 20 20 20 20 19 19 19 19 19 19 18 18 18 17 17 16
20 20 21 21 21 21 21 21 21 21 21 21 22 22 21 21 21 21 21 21 22 21 21 21 21 21 21 21 22 22 22 22 22 22 22 22 22 21 21 21 21 21 20 20 20 20 19 19 18
20 20 21 21 20 20 20 20 21 21 21 21 22 22 21 22 22 22 22 22 22 23 23 23 23 23 23 23 23 24 24 24 24 24 24 24 24 24 23 23 22 23 23 23 22 22 21 21 20
19 20 20 20 19 19 19 20 20 21 21 21 22 22 22 22 22 22 23 23 23 23 24 24 24 24 25 25 25 25 25 25 26 26 26 26 26 26 26 26 25 24 24 24 24 24 23 23 23
19 20 21 20 19 19 19 19 19 20 21 21 22 22 22 22 22 23 23 23 24 24 25 25 26 26 26 26 26 27 27 27 27 27 27 27 27 27 27 27 27 27 27 26 25 26 25 25 25
21 21 21 21 20 20 19 20 21 21 22 22 23 23 23 23 24 24 24 25 25 25 26 26 27 27 27 27 27 28 28 28 28 28 28 28 28 28 28 28 28 29 28 28 27 27 27 27 26
22 22 23 22 22 21 21 21 21 22 23 24 24 24 24 24 25 25 25 25 26 26 27 28 28 28 28 29 28 28 29 29 29 29 29 30 30 30 30 30 30 30 29 29 29 29 29 29 29
23 24 23 23 23 23 22 22 22 23 23 24 25 25 25 25 26 26 26 26 27 27 28 29 29 29 30 30 30 29 30 31 31 31 31 31 32 32 32 31 31 31 30 30 31 31 30 30 30
24 24 23 23 24 24 24 23 24 24 25 25 26 26 27 27 27 27 27 28 29 29 29 30 31 31 31 32 32 31 31 32 32 32 33 33 33 33 33 32 32 32 32 31 32 32 31 31 31
25 25 24 24 24 25 25 25 25 25 26 26 27 27 28 28 29 29 29 29 29 30 31 32 32 32 33 34 34 34 34 34 33 33 34 34 34 34 33 34 33 33 33 33 33 33 33 33 33
26 27 27 27 26 26 27 27 27 27 27 28 29 29 29 30 30 30 30 30 31 31 32 33 33 34 34 35 35 36 36 36 36 35 35 35 34 34 34 34 34 34 34 34 35 34 34 35 35
27 28 29 29 29 29 29 29 29 29 29 30 30 31 31 31 31 31 31 32 32 32 33 34 34 34 35 36 36 36 36 36 36 36 36 36 36 35 36 35 35 35 35 35 35 35 35 36 36
28 28 29 30 31 31 31 31 31 30 30 31 32 32 33 33 33 33 33 34 34 34 35 35 36 36 37 37 37 37 37 37 37 37 37 37 38 37 37 37 37 37 36 36 36 36 36 36 37
29 29 30 31 32 32 33 33 32 32 32 33 33 34 34 35 35 35 36 36 36 36 36 37 37 38 38 38 38 38 39 38 38 38 38 39 39 39 39 39 39 38 38 37 38 38 37 37 38
30 30 31 31 32 32 34 33 33 33 33 33 34 35 35 36 36 37 37 37 38 38 39 39 39 39 39 39 39 40 41 40 40 40 40 41 41 40 40 40 40 40 40 39 40 39 40 39 39
30 31 31 31 31 32 33 33 33 34 34 34 35 36 37 37 37 38 38 39 39 39 40 40 40 40 40 41 42 41 42 42 42 42 42 42 42 42 42 41 41 41 41 41 41 41 41 41 41
29 30 30 31 32 32 33 33 33 34 35 35 36 37 38 39 39 39 39 39 40 40 40 41 41 41 42 42 42 43 44 44 44 44 44 43 43 44 44 43 43 43 43 43 43 42 42 42 42
29 30 31 31 32 32 33 33 33 34 35 36 37 37 38 39 39 39 39 40 40 41 41 41 41 41 42 43 43 44 44 45 45 45 45 45 45 45 45 45 44 44 44 44 44 45 44 43 43
29 29 30 31 32 33 33 34 35 35 35 36 37 37 38 39 39 40 40 40 40 41 41 42 42 42 42 43 44 44 45 45 44 45 45 46 46 46 47 47 46 46 46 46 45 45 45 45 45
28 29 31 32 33 34 35 35 35 36 36 37 38 38 38 39 40 41 41 41 41 41 42 42 42 42 42 43 43 44 44 45 46 45 45 46 47 47 47 48 48 47 47 47 46 46 47 46 47
30 30 31 32 34 35 35 37 35 36 36 36 37 37 38 39 40 41 41 41 41 42 42 42 42 42 42 42 42 43 44 45 46 47 47 46 47 48 49 48 48 48 48 48 48 49 49 48 47
30 30 30 31 33 35 35 37 36 35 36 36 37 38 38 39 39 40 41 41 42 42 42 42 41 41 42 42 43 43 44 45 46 46 47 48 48 49 49 49 48 48 48 48 49 49 50 50 49
29 30 31 32 33 35 35 37 37 36 36 37 37 38 38 38 39 40 41 41 42 43 43 42 42 42 42 43 43 44 45 46 46 47 48 49 49 49 50 51 50 50 49 49 49 50 50 50 51
29 30 32 34 34 35 35 37 38 37 37 37 38 38 38 39 39 39 40 41 42 43 43 43 43 43 42 43 44 44 45 46 47 47 47 48 49 50 50 51 51 51 51 50 50 50 50 50 51
29 31 32 34 35 35 35 36 36 36 36 37 37 38 38 39 40 40 41 41 42 42 43 43 43 43 43 44 44 45 45 45 46 47 48 48 48 49 50 50 51 51 51 50 50 50 50 51 51
30 30 31 33 35 36 36 35 35 35 35 35 36 37 37 39 40 40 41 41 42 42 42 42 43 44 44 44 44 45 45 46 47 48 48 49 48 49 49 50 51 51 51 51 51 50 50 51 52
30 31 32 33 34 36 35 34 34 34 34 34 35 36 37 38 39 40 40 40 41 41 42 42 43 44 45 45 45 45 46 46 47 48 48 48 49 49 49 49 50 50 50 49 50 50 52 53 53
29 30 31 33 34 35 35 34 33 34 34 35 35 36 37 37 38 38 39 40 40 41 42 43 44 44 44 45 45 46 46 46 46 46 47 48 48 49 50 50 51 51 51 51 50 50 51 53 53
31 31 31 32 33 34 35 33 33 34 35 35 36 36 37 37 37 37 37 38 39 40 41 42 43 43 43 44 44 45 45 45 45 45 46 46 47 48 49 50 51 52 52 52 52 52 52 52 53
Wind_Direction
235 236 238 238 239 240 242 242 243 242 242 243 243 242 242 243 243 245 244 244 244 244 244 246 246 247 249 250 252 254 255 257 258 259 259 258 257 257 256 255 254 252 251 250 249 248 248 248 249
234 236 237 238 239 241 241 242 243 243 244 245 244 244 243 243 245 246 246 246 246 246 246 247 248 249 250 251 253 255 257 259 260 260 260 260 259 259 257 256 255 254 252 252 251 250 250 249 250
236 237 237 238 240 241 242 241 242 242 244 245 246 246 246 245 246 247 248 248 247 247 248 249 250 251 252 252 254 256 258 260 261 261 260 260 260 259 258 256 255 254 253 253 252 251 251 250 250
238 237 237 239 240 241 242 241 241 242 243 245 246 247 247 247 248 249 249 249 249 249 250 251 252 253 253 254 255 256 258 259 260 260 260 259 259 259 258 256 254 253 252 252 252 252 252 251 250
237 237 238 239 240 241 242 241 243 244 244 245 246 248 248 247 249 251 251 252 251 251 251 252 254 255 255 256 256 258 259 260 260 260 259 259 258 259 258 257 256 254 253 251 252 252 252 251 251
235 236 238 240 240 241 241 242 243 244 245 246 248 249 249 250 251 252 253 255 255 254 254 255 256 258 259 259 260 260 261 262 261 260 259 258 257 257 257 256 256 256 255 254 253 253 252 251 251
235 238 239 240 242 243 244 244 244 244 245 247 249 250 251 252 253 254 254 254 255 256 257 257 257 258 260 260 260 262 262 262 261 260 258 257 257 257 257 257 256 256 255 255 255 254 253 253 253
237 239 241 242 243 245 246 246 245 245 246 248 250 252 253 254 255 256 256 256 256 257 259 259 260 260 261 262 261 261 262 262 261 259 258 256 256 257 257 257 257 257 257 256 255 255 255 254 253
239 241 242 243 245 247 248 249 249 248 249 250 252 253 254 255 256 257 257 258 259 259 260 261 262 263 263 263 262 263 262 261 261 260 259 258 257 257 257 257 257 256 256 256 256 255 254 254 253
241 243 244 245 246 248 250 252 252 252 252 253 254 255 256 256 257 258 259 260 260 261 262 263 263 263 264 264 264 263 261 261 260 261 260 259 258 257 256 256 257 256 256 256 256 255 254 253 253
245 246 245 246 247 249 250 252 253 253 253 255 256 257 257 257 258 259 260 261 261 262 262 263 263 264 264 265 265 263 262 260 259 260 261 260 259 258 256 255 256 256 256 256 256 255 255 254 253
248 248 249 249 249 250 252 253 254 254 255 256 257 258 259 259 260 260 261 262 263 264 264 264 264 265 265 265 266 265 263 262 262 261 260 261 259 258 257 256 256 257 258 257 256 255 255 254 253
250 251 251 251 252 252 253 254 255 256 257 258 259 260 260 260 261 262 263 263 264 266 266 265 264 264 266 266 266 266 263 263 262 261 261 259 258 257 257 256 256 257 257 257 257 256 255 255 254
253 253 254 254 255 254 255 255 255 256 258 259 259 259 259 261 262 262 263 264 265 265 266 266 266 266 266 266 266 264 263 262 261 261 260 260 258 257 257 256 255 256 256 256 257 256 256 256 255
255 255 255 256 256 256 256 256 256 257 258 259 259 259 260 261 262 263 264 265 265 266 266 267 267 266 266 266 266 265 263 262 261 260 259 259 259 258 257 256 255 255 255 256 256 255 255 255 255
256 256 257 257 258 258 257 257 257 258 259 260 260 261 261 262 263 264 264 265 266 266 267 267 267 266 266 266 267 266 263 262 261 260 259 260 259 259 257 257 256 254 255 257 257 255 254 254 254
258 258 258 259 259 259 259 259 258 259 259 260 261 261 262 263 264 264 265 266 267 267 268 267 267 266 265 266 267 266 264 262 261 261 260 259 260 259 258 257 256 256 256 256 256 256 255 255 255
260 260 259 259 260 260 261 261 261 261 261 261 262 262 263 264 265 266 267 267 268 268 268 268 267 267 267 267 267 266 264 263 262 261 260 259 259 259 258 257 257 257 257 257 256 256 256 256 256
262 262 261 260 261 261 262 262 263 263 262 262 263 264 264 265 265 266 267 268 269 269 269 269 268 269 269 268 267 266 264 263 263 261 260 259 258 258 258 258 259 258 258 258 257 256 256 257 257
263 264 264 263 263 263 263 263 263 264 264 264 264 264 265 266 266 266 267 268 269 269 270 270 270 269 270 269 267 266 264 263 263 262 261 259 258 258 258 257 258 258 259 258 258 257 257 257 257
265 266 266 265 265 265 265 264 264 265 266 266 265 266 266 267 267 267 268 269 269 270 270 270 270 269 269 268 268 266 265 264 263 262 261 260 259 258 258 258 258 258 258 259 258 257 258 257 257
266 267 268 267 267 267 267 267 265 266 267 268 268 268 268 268 268 269 269 270 270 270 270 270 270 270 269 269 268 267 266 265 264 263 262 261 260 259 258 258 258 257 257 257 257 258 258 258 257
269 269 270 270 269 269 268 269 268 268 269 269 270 270 269 269 269 270 270 270 270 270 269 269 269 270 269 269 269 267 266 265 265 264 263 263 262 260 259 258 258 257 257 258 257 257 258 257 257
270 270 271 272 271 270 270 270 270 270 271 271 271 271 270 270 271 271 271 271 270 269 268 268 269 269 270 269 268 267 266 266 266 265 265 264 263 263 261 261 259 259 258 258 258 257 257 257 257
271 272 274 274 274 273 272 271 271 271 272 272 272 272 272 272 273 274 273 272 271 269 267 268 269 270 270 270 269 268 267 267 266 266 265 264 263 263 262 262 261 260 259 258 257 257 258 257 256
273 273 274 276 277 276 274 273 274 273 273 273 273 273 273 273 273 274 274 273 272 270 268 268 269 270 271 271 270 269 268 267 267 266 265 264 263 262 262 261 261 261 261 259 258 258 258 258 257
276 274 275 276 277 277 276 275 275 275 275 275 275 275 275 275 275 275 275 274 272 270 269 269 270 271 272 272 271 269 268 268 268 267 267 265 264 263 262 262 262 261 261 261 260 258 258 259 258
278 278 277 276 277 278 278 277 278 277 277 277 277 277 277 276 276 277 276 275 273 272 270 270 271 272 272 271 271 270 269 270 270 269 268 267 265 264 263 263 263 262 261 260 260 259 259 259 260
279 278 277 275 275 277 278 279 279 279 278 277 278 279 279 279 278 278 277 276 274 273 272 272 272 272 272 272 271 270 270 270 271 271 270 267 266 265 264 263 263 262 262 261 260 261 261 261 261
280 279 277 276 276 276 277 279 279 279 279 279 280 281 281 280 279 279 278 277 276 275 274 274 274 273 273 272 272 271 270 270 271 271 270 269 268 267 266 265 264 263 263 263 262 262 262 262 262
Height
5812 5814 5815 5817 5818 5819 5820 5822 5823 5824 5825 5827 5828 5829 5830 5831 5833 5836 5835 5834 5835 5836 5837 5838 5838 5839 5840 5840 5841 5841 5842 5842 5842 5842 5843 5843 5843 5843 5843 5844 5844 5844 5844 5845 5845 5845 5846 5846 5846
5809 5810 5812 5813 5814 5815 5817 5818 5819 5820 5822 5823 5824 5825 5826 5827 5828 5829 5829 5830 5831 5832 5833 5834 5834 5835 5836 5837 5837 5838 5838 5838 5839 5839 5839 5839 5839 5840 5840 5840 5840 5840 5841 5841 5842 5842 5842 5843 5843
5805 5806 5808 5809 5810 5812 5813 5814 5815 5816 5817 5818 5820 5821 5822 5823 5824 5825 5825 5826 5827 5828 5829 5829 5830 5831 5832 5832 5833 5834 5834 5834 5835 5835 5835 5835 5835 5835 5835 5835 5836 5836 5836 5837 5838 5838 5839 5839 5840
5801 5803 5804 5806 5806 5808 5809 5810 5811 5812 5813 5814 5815 5817 5818 5819 5820 5821 5821 5822 5823 5824 5824 5825 5826 5827 5827 5828 5829 5829 5829 5830 5830 5830 5830 5830 5830 5830 5830 5830 5831 5831 5832 5832 5833 5834 5834 5835 5836
5797 5798 5800 5801 5803 5804 5805 5806 5807 5808 5809 5810 5811 5812 5813 5815 5816 5816 5817 5818 5819 5819 5820 5820 5821 5822 5822 5823 5824 5824 5824 5824 5824 5824 5824 5824 5824 5824 5825 5825 5826 5826 5827 5827 5828 5829 5829 5830 5831
5793 5795 5796 5797 5799 5800 5801 5802 5803 5804 5805 5806 5807 5808 5809 5810 5811 5812 5812 5813 5814 5814 5815 5815 5816 5816 5817 5817 5818 5818 5818 5818 5818 5818 5818 5818 5818 5818 5818 5819 5820 5820 5821 5821 5822 5823 5824 5825 5826
5790 5791 5792 5794 5795 5796 5797 5798 5799 5800 5800 5802 5802 5804 5804 5805 5806 5807 5807 5808 5809 5809 5810 5810 5810 5811 5811 5811 5812 5812 5812 5811 5811 5811 5811 5811 5811 5812 5812 5813 5813 5814 5815 5816 5816 5817 5818 5819 5820
5785 5787 5787 5789 5790 5791 5793 5793 5794 5795 5796 5797 5798 5799 5800 5800 5801 5801 5802 5802 5803 5803 5804 5804 5805 5805 5805 5805 5805 5805 5805 5804 5804 5804 5804 5804 5804 5805 5805 5806 5807 5807 5808 5809 5810 5811 5812 5813 5814
5779 5782 5783 5784 5786 5787 5787 5788 5789 5790 5791 5791 5792 5793 5794 5794 5795 5795 5796 5797 5797 5797 5798 5798 5798 5798 5798 5798 5798 5798 5798 5797 5797 5797 5797 5797 5797 5798 5798 5799 5800 5800 5801 5802 5803 5804 5805 5806 5807
5774 5776 5778 5779 5780 5781 5782 5783 5784 5785 5785 5786 5787 5787 5788 5788 5789 5789 5790 5790 5791 5791 5791 5791 5791 5791 5791 5791 5790 5790 5790 5790 5790 5790 5790 5790 5790 5790 5791 5791 5792 5793 5794 5795 5796 5796 5798 5799 5800
5769 5771 5773 5773 5774 5775 5776 5777 5778 5779 5780 5780 5781 5781 5782 5782 5782 5783 5783 5784 5784 5784 5784 5784 5784 5784 5783 5783 5782 5782 5782 5782 5782 5782 5782 5782 5782 5783 5783 5784 5785 5785 5786 5787 5788 5789 5790 5791 5793
5764 5765 5766 5767 5768 5769 5770 5771 5772 5773 5774 5774 5774 5774 5775 5775 5776 5776 5776 5777 5777 5777 5777 5777 5776 5776 5775 5775 5774 5774 5773 5773 5774 5773 5773 5774 5774 5775 5775 5776 5777 5777 5778 5779 5780 5781 5782 5784 5785
5757 5759 5759 5761 5761 5762 5763 5764 5765 5766 5766 5766 5767 5767 5768 5768 5768 5768 5769 5769 5769 5769 5769 5769 5768 5767 5767 5766 5765 5765 5764 5764 5764 5764 5765 5765 5766 5766 5767 5768 5768 5769 5770 5771 5772 5773 5774 5775 5777
5751 5752 5753 5754 5754 5755 5756 5757 5758 5759 5759 5759 5759 5760 5760 5760 5760 5761 5761 5761 5761 5761 5760 5760 5759 5759 5758 5757 5756 5755 5755 5755 5755 5755 5755 5756 5756 5757 5758 5759 5760 5761 5762 5763 5763 5765 5766 5767 5768
5744 5745 5746 5746 5747 5748 5749 5750 5751 5751 5751 5751 5752 5752 5752 5752 5752 5752 5752 5752 5752 5751 5751 5751 5750 5749 5748 5747 5746 5746 5746 5745 5745 5745 5746 5746 5747 5748 5748 5750 5751 5752 5752 5754 5755 5756 5757 5758 5759
5737 5738 5738 5739 5739 5740 5742 5742 5743 5742 5743 5743 5743 5743 5743 5743 5743 5743 5743 5742 5742 5742 5741 5741 5740 5739 5738 5737 5736 5735 5735 5735 5735 5735 5736 5736 5737 5738 5739 5740 5741 5742 5743 5744 5745 5746 5747 5748 5749
5729 5730 5731 5732 5731 5731 5732 5733 5734 5733 5734 5734 5734 5734 5734 5734 5733 5733 5733 5732 5732 5732 5731 5730 5729 5728 5728 5727 5726 5724 5723 5723 5724 5724 5725 5726 5726 5727 5728 5729 5731 5732 5733 5734 5735 5736 5737 5738 5739
5722 5722 5723 5723 5723 5723 5724 5725 5725 5725 5725 5725 5725 5725 5724 5724 5724 5723 5723 5722 5721 5721 5720 5719 5718 5717 5716 5715 5714 5713 5712 5712 5712 5712 5713 5714 5715 5716 5717 5718 5720 5721 5723 5724 5725 5726 5726 5728 5729
5714 5715 5715 5715 5715 5715 5716 5716 5716 5716 5716 5716 5716 5715 5715 5714 5714 5713 5712 5712 5711 5710 5709 5708 5707 5706 5704 5703 5702 5701 5700 5699 5699 5700 5701 5702 5703 5704 5705 5707 5708 5710 5711 5713 5714 5715 5716 5717 5718
5706 5706 5707 5707 5707 5707 5707 5707 5707 5707 5707 5706 5706 5705 5705 5704 5703 5702 5702 5701 5700 5699 5697 5696 5695 5694 5692 5691 5689 5688 5687 5687 5687 5687 5688 5689 5691 5692 5693 5695 5697 5698 5700 5701 5702 5703 5705 5706 5707
5698 5698 5698 5698 5697 5697 5697 5698 5699 5698 5697 5696 5696 5695 5694 5694 5693 5692 5691 5690 5689 5687 5685 5684 5682 5681 5680 5678 5677 5676 5675 5674 5675 5675 5675 5676 5677 5679 5681 5682 5684 5686 5687 5689 5690 5692 5693 5694 5695
5690 5690 5689 5689 5688 5687 5688 5687 5689 5688 5687 5687 5686 5685 5684 5683 5682 5680 5680 5678 5677 5675 5673 5672 5670 5669 5668 5666 5665 5664 5663 5662 5662 5662 5663 5663 5664 5666 5667 5669 5671 5673 5674 5676 5677 5679 5680 5681 5682
5682 5681 5680 5679 5678 5678 5678 5676 5679 5678 5677 5677 5676 5674 5673 5672 5670 5669 5668 5666 5665 5663 5661 5660 5659 5657 5656 5654 5653 5652 5651 5650 5650 5650 5650 5650 5651 5652 5654 5656 5657 5659 5661 5662 5664 5666 5667 5668 5670
5673 5673 5671 5670 5669 5668 5668 5666 5667 5667 5667 5666 5665 5663 5662 5660 5659 5658 5656 5655 5653 5651 5650 5649 5647 5646 5644 5643 5641 5640 5639 5638 5637 5637 5637 5637 5638 5639 5640 5641 5643 5645 5647 5649 5650 5652 5653 5654 5656
5665 5664 5662 5660 5658 5658 5658 5656 5657 5657 5656 5655 5654 5652 5651 5649 5648 5646 5645 5643 5641 5639 5638 5637 5635 5634 5632 5630 5629 5627 5626 5625 5624 5624 5624 5624 5624 5625 5626 5627 5629 5631 5633 5635 5636 5638 5639 5641 5642
5656 5655 5654 5651 5649 5649 5647 5646 5647 5647 5645 5643 5642 5641 5639 5638 5636 5635 5633 5631 5629 5628 5626 5625 5624 5622 5620 5618 5616 5615 5613 5612 5611 5611 5610 5610 5611 5612 5612 5614 5615 5617 5619 5621 5622 5624 5626 5627 5628
5647 5645 5644 5642 5639 5638 5637 5637 5637 5636 5634 5633 5631 5630 5628 5627 5625 5623 5621 5619 5617 5616 5614 5613 5612 5610 5608 5606 5604 5603 5601 5600 5599 5598 5597 5597 5597 5598 5599 5600 5602 5603 5605 5607 5608 5610 5612 5613 5614
5639 5637 5635 5632 5629 5627 5627 5627 5627 5625 5624 5623 5621 5619 5617 5616 5613 5611 5609 5607 5605 5604 5603 5601 5600 5598 5596 5594 5592 5590 5589 5588 5586 5585 5585 5584 5584 5585 5586 5587 5588 5589 5591 5593 5594 5596 5597 5599 5600
5630 5628 5625 5623 5621 5619 5617 5620 5618 5615 5613 5612 5610 5608 5607 5605 5602 5600 5598 5596 5594 5592 5591 5589 5587 5585 5583 5581 5580 5578 5577 5576 5574 5573 5572 5572 5572 5572 5573 5574 5574 5576 5577 5578 5580 5581 5583 5584 5585
5620 5619 5617 5615 5613 5610 5608 5612 5608 5606 5603 5602 5600 5598 5596 5594 5591 5589 5587 5585 5583 5581 5579 5577 5575 5573 5571 5570 5568 5566 5565 5563 5562 5561 5560 5559 5559 5559 5560 5560 5561 5562 5563 5564 5565 5567 5568 5569 5570